| time (UTC) | temp F | wind direction | speed MPH | gust MPH | rain 1hr in | rain 24hr in | rain mn in | humidity % | barometer mb |
| 20260502130503 | 41 | 314 | 2.0 | 4.0 | 0.00 | 0.03 | 0.00 | 71 | 1015.2 |
| 20260502130218 | 40 | 299 | 2.0 | 4.0 | 0.00 | 0.03 | 0.00 | 70 | 1015.2 |
| 20260502123503 | 39 | 258 | 1.0 | 3.0 | 0.00 | 0.03 | 0.00 | 78 | 1015.2 |
| 20260502123003 | 38 | 245 | 1.0 | 3.0 | 0.00 | 0.03 | 0.00 | 81 | 1015.2 |
| 20260502122717 | 38 | 252 | 1.0 | 3.0 | 0.00 | 0.03 | 0.00 | 80 | 1015.4 |
| 20260502122003 | 37 | 279 | 1.0 | 3.0 | 0.00 | 0.03 | 0.00 | 84 | 1015.3 |
| 20260502121503 | 37 | 216 | 1.0 | 3.0 | 0.00 | 0.03 | 0.00 | 84 | 1015.2 |
| 20260502121003 | 36 | 207 | 1.0 | 3.0 | 0.00 | 0.03 | 0.00 | 85 | 1015.2 |
| 20260502120503 | 36 | 212 | 0.0 | 3.0 | 0.00 | 0.03 | 0.00 | 86 | 1015.2 |
| 20260502115503 | 35 | 195 | 0.0 | 2.0 | 0.00 | 0.03 | 0.00 | 87 | 1015.2 |
| 20260502115006 | 35 | 187 | 1.0 | 3.0 | 0.00 | 0.03 | 0.00 | 89 | 1015.2 |
| 20260502114503 | 34 | 193 | 1.0 | 4.0 | 0.00 | 0.03 | 0.00 | 89 | 1015.3 |
| 20260502114004 | 34 | 214 | 1.0 | 4.0 | 0.00 | 0.03 | 0.00 | 89 | 1015.2 |
| 20260502113717 | 34 | 215 | 1.0 | 3.0 | 0.00 | 0.03 | 0.00 | 89 | 1015.2 |
| 20260502113004 | 33 | 208 | 0.0 | 3.0 | 0.00 | 0.03 | 0.00 | 90 | 1015.3 |
| 20260502112717 | 33 | 0 | 0.0 | 0.0 | 0.00 | 0.03 | 0.00 | 91 | 1015.3 |
| 20260502112003 | 33 | 0 | 0.0 | 0.0 | 0.00 | 0.03 | 0.00 | 91 | 1015.1 |
| 20260502111503 | 33 | 0 | 0.0 | 0.0 | 0.00 | 0.03 | 0.00 | 91 | 1015.2 |
| 20260502111218 | 33 | 0 | 0.0 | 0.0 | 0.00 | 0.03 | 0.00 | 91 | 1015.2 |
| 20260502110503 | 33 | 0 | 0.0 | 0.0 | 0.00 | 0.03 | 0.00 | 91 | 1015.1 |
| 20260502110003 | 33 | 0 | 0.0 | 0.0 | 0.00 | 0.03 | 0.00 | 91 | 1015.1 |
| 20260502105503 | 33 | 0 | 0.0 | 0.0 | 0.00 | 0.03 | 0.00 | 90 | 1015.0 |
| 20260502105217 | 33 | 0 | 0.0 | 0.0 | 0.00 | 0.03 | 0.00 | 90 | 1015.0 |
| 20260502104503 | 33 | 0 | 0.0 | 0.0 | 0.00 | 0.03 | 0.00 | 90 | 1015.0 |
| 20260502104003 | 33 | 0 | 0.0 | 0.0 | 0.00 | 0.03 | 0.00 | 90 | 1015.0 |
| 20260502103504 | 33 | 0 | 0.0 | 0.0 | 0.00 | 0.03 | 0.00 | 90 | 1014.7 |
| 20260502103003 | 33 | 0 | 0.0 | 0.0 | 0.00 | 0.03 | 0.00 | 91 | 1014.7 |
| 20260502102503 | 33 | 0 | 0.0 | 0.0 | 0.00 | 0.03 | 0.00 | 90 | 1014.7 |
| 20260502101503 | 32 | 0 | 0.0 | 0.0 | 0.00 | 0.03 | 0.00 | 91 | 1014.6 |
| 20260502101003 | 32 | 0 | 0.0 | 0.0 | 0.00 | 0.03 | 0.00 | 91 | 1014.6 |
| 20260502100503 | 32 | 0 | 0.0 | 0.0 | 0.00 | 0.03 | 0.00 | 90 | 1014.5 |
| 20260502091503 | 33 | 0 | 0.0 | 0.0 | 0.00 | 0.03 | 0.00 | 89 | 1014.3 |
| 20260502091003 | 33 | 0 | 0.0 | 0.0 | 0.00 | 0.03 | 0.00 | 89 | 1014.3 |
| 20260502090718 | 33 | 0 | 0.0 | 0.0 | 0.00 | 0.03 | 0.00 | 89 | 1014.2 |
| 20260502071503 | 35 | 250 | 1.0 | 2.0 | 0.00 | 0.03 | 0.00 | 87 | 1013.8 |
| 20260502071218 | 35 | 250 | 1.0 | 2.0 | 0.00 | 0.03 | 0.00 | 86 | 1013.9 |
| 20260502070503 | 36 | 250 | 1.0 | 2.0 | 0.00 | 0.03 | 0.00 | 86 | 1013.9 |
| 20260502070003 | 35 | 250 | 1.0 | 2.0 | 0.00 | 0.03 | 0.00 | 86 | 1013.9 |
| 20260502065503 | 36 | 250 | 1.0 | 2.0 | 0.00 | 0.03 | 0.00 | 86 | 1014.0 |
| 20260502065218 | 36 | 250 | 1.0 | 2.0 | 0.00 | 0.03 | 0.00 | 86 | 1013.9 |
| 20260502064504 | 36 | 250 | 1.0 | 2.0 | 0.00 | 0.03 | 0.00 | 85 | 1013.9 |
| 20260502064003 | 36 | 250 | 1.0 | 2.0 | 0.00 | 0.03 | 0.00 | 85 | 1013.7 |
| 20260502063503 | 36 | 250 | 1.0 | 2.0 | 0.00 | 0.03 | 0.00 | 85 | 1013.7 |
| 20260502063003 | 36 | 250 | 1.0 | 2.0 | 0.00 | 0.03 | 0.00 | 84 | 1013.9 |
| 20260502062503 | 36 | 250 | 1.0 | 2.0 | 0.00 | 0.03 | 0.00 | 84 | 1013.9 |
| 20260502062003 | 36 | 250 | 1.0 | 2.0 | 0.00 | 0.03 | 0.00 | 84 | 1013.9 |
| 20260502061003 | 37 | 250 | 1.0 | 2.0 | 0.00 | 0.03 | 0.00 | 83 | 1014.0 |
| 20260502060503 | 37 | 250 | 1.0 | 2.0 | 0.00 | 0.03 | 0.00 | 83 | 1014.0 |
| 20260502060004 | 37 | 250 | 0.0 | 2.0 | 0.00 | 0.03 | 0.00 | 83 | 1014.0 |
| 20260502055503 | 37 | 250 | 1.0 | 2.0 | 0.00 | 0.03 | 0.00 | 83 | 1014.1 |
| 20260502055003 | 37 | 250 | 1.0 | 2.0 | 0.00 | 0.03 | 0.00 | 83 | 1014.1 |
| 20260502054503 | 38 | 250 | 1.0 | 2.0 | 0.00 | 0.03 | 0.00 | 83 | 1014.1 |
| 20260502054003 | 38 | 250 | 1.0 | 2.0 | 0.00 | 0.03 | 0.00 | 82 | 1014.1 |
| 20260502053716 | 38 | 250 | 1.0 | 2.0 | 0.00 | 0.03 | 0.00 | 82 | 1014.1 |
| 20260502053003 | 38 | 250 | 1.0 | 2.0 | 0.00 | 0.03 | 0.00 | 82 | 1014.0 |
| 20260502052503 | 38 | 250 | 1.0 | 2.0 | 0.00 | 0.03 | 0.00 | 82 | 1014.0 |
| 20260502052003 | 38 | 250 | 1.0 | 2.0 | 0.00 | 0.03 | 0.00 | 82 | 1014.0 |
| 20260502051503 | 39 | 0 | 0.0 | 0.0 | 0.00 | 0.03 | 0.00 | 81 | 1014.0 |
| 20260502051217 | 39 | 0 | 0.0 | 0.0 | 0.00 | 0.03 | 0.00 | 81 | 1013.9 |
| 20260502050503 | 39 | 250 | 1.0 | 2.0 | 0.00 | 0.03 | 0.00 | 81 | 1013.7 |
| 20260502050217 | 39 | 250 | 1.0 | 2.0 | 0.00 | 0.03 | 0.00 | 80 | 1013.7 |
| 20260502045503 | 40 | 250 | 1.0 | 3.0 | 0.00 | 0.03 | 0.00 | 80 | 1013.6 |
| 20260502045003 | 40 | 244 | 1.0 | 7.0 | 0.00 | 0.03 | 0.00 | 79 | 1013.5 |
| 20260502044504 | 40 | 215 | 1.0 | 7.0 | 0.00 | 0.03 | 0.00 | 79 | 1013.5 |
| 20260502044003 | 40 | 225 | 1.0 | 3.0 | 0.00 | 0.03 | 0.00 | 79 | 1013.4 |
| 20260502043503 | 40 | 259 | 1.0 | 3.0 | 0.00 | 0.03 | 0.00 | 78 | 1013.4 |
| 20260502043003 | 41 | 259 | 2.0 | 3.0 | 0.00 | 0.03 | 0.00 | 79 | 1013.4 |
| 20260502042503 | 41 | 244 | 2.0 | 3.0 | 0.00 | 0.03 | 0.00 | 78 | 1013.4 |
| 20260502042003 | 41 | 243 | 1.0 | 3.0 | 0.00 | 0.03 | 0.00 | 80 | 1013.3 |
| 20260502041503 | 41 | 252 | 0.0 | 2.0 | 0.00 | 0.03 | 0.00 | 82 | 1013.3 |
| 20260502041003 | 42 | 252 | 0.0 | 1.0 | 0.00 | 0.03 | 0.00 | 82 | 1013.2 |
| 20260502040503 | 42 | 252 | 0.0 | 2.0 | 0.00 | 0.03 | 0.00 | 81 | 1013.3 |
| 20260502040004 | 42 | 252 | 1.0 | 2.0 | 0.00 | 0.03 | 0.00 | 82 | 1013.3 |
| 20260502035503 | 42 | 252 | 1.0 | 2.0 | 0.00 | 0.03 | 0.03 | 82 | 1013.3 |
| 20260502035003 | 42 | 252 | 1.0 | 2.0 | 0.00 | 0.03 | 0.03 | 82 | 1013.3 |
| 20260502034503 | 42 | 252 | 1.0 | 2.0 | 0.00 | 0.03 | 0.03 | 83 | 1013.3 |
| 20260502034003 | 42 | 252 | 1.0 | 2.0 | 0.00 | 0.03 | 0.03 | 83 | 1013.4 |
| 20260502033503 | 42 | 250 | 1.0 | 3.0 | 0.00 | 0.03 | 0.03 | 83 | 1013.3 |
| 20260502033217 | 42 | 246 | 1.0 | 3.0 | 0.00 | 0.03 | 0.03 | 82 | 1013.2 |
| 20260502032503 | 42 | 242 | 1.0 | 3.0 | 0.00 | 0.03 | 0.03 | 83 | 1013.2 |
| 20260502032217 | 42 | 243 | 1.0 | 3.0 | 0.00 | 0.03 | 0.03 | 83 | 1013.2 |
| 20260502031503 | 42 | 246 | 1.0 | 3.0 | 0.00 | 0.03 | 0.03 | 82 | 1013.1 |
| 20260502031003 | 42 | 241 | 1.0 | 3.0 | 0.00 | 0.03 | 0.03 | 82 | 1013.1 |
| 20260502030503 | 42 | 225 | 1.0 | 2.0 | 0.00 | 0.03 | 0.03 | 82 | 1013.1 |
| 20260502030217 | 42 | 213 | 1.0 | 2.0 | 0.00 | 0.03 | 0.03 | 82 | 1013.1 |
| 20260502025503 | 42 | 221 | 1.0 | 3.0 | 0.00 | 0.03 | 0.03 | 82 | 1013.2 |
| 20260502025003 | 42 | 242 | 1.0 | 2.0 | 0.00 | 0.03 | 0.03 | 82 | 1013.2 |
| 20260502024503 | 42 | 251 | 1.0 | 2.0 | 0.00 | 0.03 | 0.03 | 82 | 1013.2 |
| 20260502024216 | 42 | 250 | 1.0 | 3.0 | 0.00 | 0.03 | 0.03 | 82 | 1013.2 |
| 20260502023503 | 42 | 222 | 1.0 | 3.0 | 0.00 | 0.03 | 0.03 | 82 | 1013.2 |
| 20260502023003 | 42 | 202 | 1.0 | 2.0 | 0.00 | 0.03 | 0.03 | 83 | 1013.3 |
| 20260502022503 | 42 | 202 | 1.0 | 2.0 | 0.00 | 0.03 | 0.03 | 83 | 1013.2 |
| 20260502022003 | 42 | 215 | 0.0 | 2.0 | 0.00 | 0.03 | 0.03 | 83 | 1013.2 |
| 20260502021503 | 42 | 218 | 1.0 | 2.0 | 0.00 | 0.03 | 0.03 | 83 | 1013.2 |
| 20260502021003 | 42 | 217 | 1.0 | 2.0 | 0.00 | 0.03 | 0.03 | 82 | 1013.2 |
| 20260502020717 | 42 | 217 | 1.0 | 2.0 | 0.00 | 0.03 | 0.03 | 82 | 1013.2 |
| 20260502020218 | 42 | 229 | 1.0 | 3.0 | 0.00 | 0.03 | 0.03 | 81 | 1013.2 |
| 20260502015503 | 42 | 248 | 2.0 | 3.0 | 0.00 | 0.03 | 0.03 | 81 | 1013.1 |
| 20260502015003 | 43 | 248 | 1.0 | 3.0 | 0.00 | 0.03 | 0.03 | 82 | 1013.0 |
| 20260502014503 | 43 | 248 | 1.0 | 3.0 | 0.00 | 0.03 | 0.03 | 82 | 1013.0 |
| 20260502014003 | 43 | 248 | 1.0 | 2.0 | 0.00 | 0.03 | 0.03 | 82 | 1013.0 |
| 20260502013503 | 43 | 248 | 2.0 | 3.0 | 0.00 | 0.03 | 0.03 | 82 | 1013.0 |
| 20260502013005 | 43 | 245 | 2.0 | 3.0 | 0.00 | 0.03 | 0.03 | 82 | 1012.9 |
| 20260502012503 | 43 | 239 | 2.0 | 3.0 | 0.00 | 0.03 | 0.03 | 82 | 1012.9 |
| 20260502012003 | 43 | 235 | 2.0 | 3.0 | 0.00 | 0.03 | 0.03 | 83 | 1012.9 |
| 20260502011717 | 43 | 234 | 2.0 | 3.0 | 0.00 | 0.03 | 0.03 | 83 | 1012.9 |
| 20260502011003 | 43 | 234 | 1.0 | 3.0 | 0.00 | 0.03 | 0.03 | 83 | 1012.9 |
| 20260502010503 | 43 | 0 | 0.0 | 0.0 | 0.00 | 0.03 | 0.03 | 82 | 1012.8 |
| 20260502010003 | 44 | 0 | 0.0 | 0.0 | 0.00 | 0.03 | 0.03 | 82 | 1012.8 |
| 20260502005717 | 44 | 0 | 0.0 | 0.0 | 0.00 | 0.03 | 0.03 | 82 | 1012.7 |
| 20260502005003 | 44 | 0 | 0.0 | 0.0 | 0.00 | 0.03 | 0.03 | 82 | 1012.6 |
| 20260502004503 | 44 | 0 | 0.0 | 0.0 | 0.00 | 0.03 | 0.03 | 81 | 1012.5 |
| 20260502004003 | 44 | 234 | 0.0 | 2.0 | 0.00 | 0.03 | 0.03 | 82 | 1012.4 |
| 20260502003503 | 44 | 232 | 1.0 | 2.0 | 0.00 | 0.03 | 0.03 | 81 | 1012.3 |
| 20260502003003 | 44 | 226 | 2.0 | 3.0 | 0.00 | 0.03 | 0.03 | 80 | 1012.3 |
| 20260502002503 | 44 | 222 | 1.0 | 3.0 | 0.00 | 0.03 | 0.03 | 80 | 1012.2 |
| 20260502002218 | 45 | 224 | 1.0 | 2.0 | 0.00 | 0.03 | 0.03 | 79 | 1012.1 |
| 20260502001503 | 45 | 228 | 0.0 | 2.0 | 0.00 | 0.03 | 0.03 | 79 | 1011.9 |
| 20260502001003 | 45 | 228 | 1.0 | 2.0 | 0.00 | 0.03 | 0.03 | 78 | 1011.9 |
| 20260502000503 | 46 | 228 | 1.0 | 3.0 | 0.00 | 0.03 | 0.03 | 78 | 1011.9 |
| 20260502000003 | 46 | 228 | 0.0 | 3.0 | 0.00 | 0.03 | 0.03 | 78 | 1011.9 |
| 20260501235503 | 46 | 0 | 0.0 | 0.0 | 0.00 | 0.03 | 0.03 | 78 | 1011.9 |
| 20260501235003 | 46 | 0 | 0.0 | 0.0 | 0.00 | 0.04 | 0.03 | 76 | 1011.7 |
| 20260501234503 | 46 | 0 | 0.0 | 0.0 | 0.00 | 0.04 | 0.03 | 75 | 1011.7 |
| 20260501234217 | 46 | 228 | 0.0 | 1.0 | 0.00 | 0.04 | 0.03 | 73 | 1011.6 |
| 20260501233503 | 46 | 228 | 0.0 | 2.0 | 0.00 | 0.04 | 0.03 | 75 | 1011.6 |
| 20260501233217 | 46 | 228 | 0.0 | 2.0 | 0.00 | 0.04 | 0.03 | 75 | 1011.5 |
| 20260501232503 | 47 | 228 | 0.0 | 2.0 | 0.00 | 0.04 | 0.03 | 75 | 1011.5 |
| 20260501232003 | 47 | 228 | 1.0 | 2.0 | 0.00 | 0.04 | 0.03 | 75 | 1011.5 |
| 20260501231718 | 47 | 228 | 0.0 | 2.0 | 0.00 | 0.04 | 0.03 | 73 | 1011.5 |
| 20260501231003 | 47 | 231 | 1.0 | 2.0 | 0.00 | 0.04 | 0.03 | 73 | 1011.4 |
| 20260501230503 | 47 | 221 | 1.0 | 2.0 | 0.00 | 0.04 | 0.03 | 74 | 1011.4 |
| 20260501230003 | 47 | 168 | 1.0 | 3.0 | 0.00 | 0.04 | 0.03 | 73 | 1011.4 |
| 20260501225503 | 47 | 161 | 1.0 | 3.0 | 0.00 | 0.04 | 0.03 | 72 | 1011.4 |
| 20260501225003 | 47 | 203 | 1.0 | 2.0 | 0.00 | 0.04 | 0.03 | 73 | 1011.3 |
| 20260501224718 | 47 | 204 | 1.0 | 2.0 | 0.00 | 0.04 | 0.03 | 74 | 1011.4 |
| 20260501224003 | 47 | 204 | 1.0 | 2.0 | 0.00 | 0.04 | 0.03 | 73 | 1011.4 |
| 20260501223503 | 47 | 204 | 1.0 | 2.0 | 0.00 | 0.04 | 0.03 | 72 | 1011.4 |
| 20260501223003 | 47 | 204 | 1.0 | 2.0 | 0.00 | 0.04 | 0.03 | 74 | 1011.3 |
| 20260501222503 | 47 | 205 | 1.0 | 3.0 | 0.00 | 0.04 | 0.03 | 74 | 1011.4 |
| 20260501222003 | 47 | 224 | 0.0 | 3.0 | 0.00 | 0.04 | 0.03 | 74 | 1011.3 |
| 20260501221503 | 47 | 259 | 1.0 | 3.0 | 0.00 | 0.04 | 0.03 | 72 | 1011.3 |
| 20260501221003 | 47 | 279 | 0.0 | 2.0 | 0.00 | 0.04 | 0.03 | 75 | 1011.4 |
| 20260501220503 | 47 | 254 | 0.0 | 2.0 | 0.00 | 0.04 | 0.03 | 76 | 1011.3 |
| 20260501220003 | 47 | 196 | 0.0 | 2.0 | 0.00 | 0.04 | 0.03 | 77 | 1011.4 |
| 20260501215503 | 47 | 203 | 1.0 | 4.0 | 0.00 | 0.04 | 0.03 | 75 | 1011.4 |
| 20260501215003 | 47 | 201 | 1.0 | 4.0 | 0.00 | 0.04 | 0.03 | 76 | 1011.4 |
| 20260501214503 | 46 | 195 | 1.0 | 3.0 | 0.00 | 0.04 | 0.03 | 77 | 1011.5 |
| 20260501214003 | 46 | 194 | 0.0 | 3.0 | 0.00 | 0.04 | 0.03 | 78 | 1011.4 |
| 20260501213718 | 46 | 194 | 0.0 | 2.0 | 0.00 | 0.04 | 0.03 | 80 | 1011.2 |
| 20260501213003 | 46 | 181 | 1.0 | 3.0 | 0.00 | 0.04 | 0.03 | 78 | 1011.3 |
| 20260501212717 | 46 | 191 | 1.0 | 5.0 | 0.00 | 0.04 | 0.03 | 79 | 1011.4 |
| 20260501212003 | 46 | 222 | 0.0 | 5.0 | 0.00 | 0.04 | 0.03 | 81 | 1011.3 |
| 20260501211503 | 46 | 151 | 0.0 | 2.0 | 0.00 | 0.04 | 0.03 | 83 | 1011.2 |
| 20260501211218 | 46 | 179 | 0.0 | 2.0 | 0.00 | 0.04 | 0.03 | 82 | 1011.1 |
| 20260501210503 | 45 | 264 | 0.0 | 2.0 | 0.00 | 0.04 | 0.03 | 80 | 1011.2 |
| 20260501210218 | 45 | 270 | 1.0 | 2.0 | 0.00 | 0.04 | 0.03 | 81 | 1011.2 |
| 20260501205503 | 45 | 259 | 1.0 | 4.0 | 0.00 | 0.04 | 0.03 | 80 | 1011.3 |
| 20260501205003 | 45 | 227 | 2.0 | 6.0 | 0.00 | 0.04 | 0.03 | 81 | 1011.1 |
| 20260501204503 | 46 | 189 | 1.0 | 6.0 | 0.00 | 0.04 | 0.03 | 81 | 1011.1 |
| 20260501204003 | 46 | 156 | 1.0 | 3.0 | 0.00 | 0.04 | 0.03 | 83 | 1011.0 |
| 20260501203503 | 45 | 152 | 1.0 | 2.0 | 0.00 | 0.04 | 0.03 | 85 | 1010.9 |
| 20260501203003 | 45 | 134 | 1.0 | 2.0 | 0.00 | 0.04 | 0.03 | 86 | 1011.1 |
| 20260501202503 | 45 | 139 | 1.0 | 2.0 | 0.00 | 0.04 | 0.03 | 85 | 1011.1 |
| 20260501202003 | 45 | 175 | 1.0 | 3.0 | 0.00 | 0.04 | 0.03 | 85 | 1011.2 |
| 20260501201503 | 44 | 168 | 1.0 | 3.0 | 0.00 | 0.04 | 0.03 | 86 | 1011.1 |
| 20260501201003 | 44 | 182 | 1.0 | 3.0 | 0.00 | 0.04 | 0.03 | 85 | 1011.2 |
| 20260501200503 | 44 | 188 | 0.0 | 3.0 | 0.01 | 0.04 | 0.03 | 85 | 1011.3 |
| 20260501200003 | 44 | 153 | 1.0 | 2.0 | 0.01 | 0.04 | 0.03 | 88 | 1011.3 |
| 20260501195503 | 44 | 162 | 1.0 | 2.0 | 0.01 | 0.04 | 0.03 | 87 | 1011.4 |
| 20260501195003 | 44 | 198 | 0.0 | 2.0 | 0.01 | 0.04 | 0.03 | 86 | 1011.4 |
| 20260501194503 | 44 | 198 | 0.0 | 3.0 | 0.01 | 0.04 | 0.03 | 87 | 1011.6 |
| 20260501194003 | 44 | 198 | 0.0 | 3.0 | 0.01 | 0.04 | 0.03 | 87 | 1011.7 |
| 20260501193503 | 44 | 38 | 0.0 | 3.0 | 0.01 | 0.04 | 0.03 | 87 | 1011.7 |
| 20260501193003 | 43 | 26 | 0.0 | 1.0 | 0.01 | 0.04 | 0.03 | 88 | 1011.7 |
| 20260501192503 | 43 | 26 | 0.0 | 1.0 | 0.01 | 0.04 | 0.03 | 88 | 1011.7 |
| 20260501192003 | 43 | 26 | 0.0 | 1.0 | 0.01 | 0.04 | 0.03 | 89 | 1011.8 |
| 20260501191717 | 43 | 26 | 0.0 | 1.0 | 0.01 | 0.04 | 0.03 | 89 | 1011.8 |
| 20260501191003 | 43 | 26 | 0.0 | 1.0 | 0.01 | 0.04 | 0.03 | 89 | 1011.9 |
| 20260501190503 | 43 | 26 | 0.0 | 1.0 | 0.00 | 0.03 | 0.02 | 89 | 1011.9 |
| 20260501190003 | 43 | 280 | 0.0 | 1.0 | 0.00 | 0.03 | 0.02 | 89 | 1012.0 |
| 20260501185503 | 42 | 280 | 0.0 | 2.0 | 0.00 | 0.03 | 0.02 | 89 | 1012.0 |
| 20260501185003 | 42 | 280 | 0.0 | 2.0 | 0.00 | 0.03 | 0.02 | 89 | 1012.1 |
| 20260501184504 | 42 | 280 | 1.0 | 2.0 | 0.00 | 0.03 | 0.02 | 89 | 1012.2 |
| 20260501184003 | 42 | 280 | 1.0 | 2.0 | 0.00 | 0.03 | 0.02 | 89 | 1012.2 |
| 20260501183503 | 42 | 280 | 0.0 | 2.0 | 0.01 | 0.03 | 0.02 | 88 | 1012.3 |
| 20260501183003 | 42 | 0 | 0.0 | 0.0 | 0.01 | 0.03 | 0.02 | 89 | 1012.4 |
| 20260501182503 | 42 | 271 | 0.0 | 1.0 | 0.01 | 0.03 | 0.02 | 89 | 1012.3 |
| 20260501182217 | 42 | 271 | 0.0 | 1.0 | 0.01 | 0.03 | 0.02 | 89 | 1012.3 |
| 20260501181718 | 42 | 231 | 0.0 | 3.0 | 0.01 | 0.03 | 0.02 | 88 | 1012.3 |
| 20260501181003 | 42 | 190 | 0.0 | 2.0 | 0.01 | 0.03 | 0.02 | 89 | 1012.4 |
| 20260501180503 | 42 | 190 | 1.0 | 2.0 | 0.01 | 0.03 | 0.02 | 89 | 1012.4 |
| 20260501180003 | 42 | 190 | 1.0 | 2.0 | 0.01 | 0.03 | 0.02 | 88 | 1012.4 |
| 20260501175503 | 42 | 190 | 1.0 | 2.0 | 0.01 | 0.03 | 0.02 | 89 | 1012.4 |
| 20260501175003 | 42 | 190 | 0.0 | 2.0 | 0.01 | 0.03 | 0.02 | 88 | 1012.3 |
| 20260501174503 | 42 | 0 | 0.0 | 0.0 | 0.01 | 0.03 | 0.02 | 88 | 1012.4 |
| 20260501174003 | 42 | 0 | 0.0 | 0.0 | 0.01 | 0.03 | 0.02 | 87 | 1012.4 |
| 20260501173503 | 42 | 0 | 0.0 | 0.0 | 0.00 | 0.02 | 0.01 | 88 | 1012.4 |
| 20260501173003 | 42 | 0 | 0.0 | 0.0 | 0.00 | 0.02 | 0.01 | 87 | 1012.5 |
| 20260501172503 | 42 | 190 | 0.0 | 2.0 | 0.00 | 0.02 | 0.01 | 87 | 1012.5 |
| 20260501172003 | 42 | 190 | 1.0 | 2.0 | 0.01 | 0.02 | 0.01 | 87 | 1012.6 |
| 20260501171718 | 43 | 191 | 1.0 | 3.0 | 0.01 | 0.02 | 0.01 | 86 | 1012.6 |
| 20260501171003 | 43 | 200 | 1.0 | 3.0 | 0.01 | 0.02 | 0.01 | 87 | 1012.4 |
| 20260501170503 | 43 | 215 | 1.0 | 2.0 | 0.01 | 0.02 | 0.01 | 86 | 1012.5 |
| 20260501170003 | 43 | 218 | 1.0 | 2.0 | 0.01 | 0.02 | 0.01 | 86 | 1012.5 |
| 20260501165503 | 43 | 236 | 1.0 | 3.0 | 0.01 | 0.02 | 0.01 | 85 | 1012.6 |
| 20260501165003 | 43 | 241 | 1.0 | 3.0 | 0.01 | 0.02 | 0.01 | 85 | 1012.6 |
| 20260501164718 | 43 | 237 | 1.0 | 3.0 | 0.01 | 0.02 | 0.01 | 85 | 1012.7 |
| 20260501164003 | 44 | 229 | 1.0 | 3.0 | 0.01 | 0.02 | 0.01 | 86 | 1012.6 |
| 20260501163503 | 44 | 231 | 1.0 | 3.0 | 0.01 | 0.02 | 0.01 | 85 | 1012.6 |
| 20260501163003 | 44 | 238 | 1.0 | 3.0 | 0.01 | 0.02 | 0.01 | 84 | 1012.5 |
| 20260501162503 | 44 | 217 | 1.0 | 3.0 | 0.01 | 0.02 | 0.01 | 83 | 1012.6 |
| 20260501162003 | 44 | 213 | 1.0 | 3.0 | 0.00 | 0.01 | 0.00 | 84 | 1012.6 |
| 20260501161503 | 44 | 235 | 1.0 | 5.0 | 0.00 | 0.01 | 0.00 | 85 | 1012.8 |
| 20260501161003 | 44 | 223 | 1.0 | 5.0 | 0.00 | 0.01 | 0.00 | 84 | 1012.8 |
| 20260501160717 | 44 | 211 | 0.0 | 4.0 | 0.00 | 0.01 | 0.00 | 84 | 1012.8 |
| 20260501160003 | 44 | 195 | 1.0 | 3.0 | 0.00 | 0.01 | 0.00 | 85 | 1012.9 |
| 20260501155503 | 44 | 196 | 1.0 | 3.0 | 0.00 | 0.01 | 0.00 | 83 | 1012.9 |
| 20260501154717 | 45 | 212 | 1.0 | 3.0 | 0.00 | 0.01 | 0.00 | 81 | 1013.0 |
| 20260501154003 | 45 | 210 | 2.0 | 6.0 | 0.00 | 0.01 | 0.00 | 77 | 1012.9 |
| 20260501153503 | 46 | 204 | 1.0 | 4.0 | 0.00 | 0.01 | 0.00 | 76 | 1013.0 |
| 20260501153003 | 46 | 207 | 1.0 | 4.0 | 0.00 | 0.01 | 0.00 | 77 | 1012.9 |
| 20260501152503 | 46 | 225 | 1.0 | 4.0 | 0.00 | 0.01 | 0.00 | 76 | 1012.9 |
| 20260501152003 | 46 | 232 | 1.0 | 3.0 | 0.00 | 0.01 | 0.00 | 76 | 1012.9 |
| 20260501151503 | 46 | 240 | 1.0 | 3.0 | 0.00 | 0.01 | 0.00 | 75 | 1012.9 |
| 20260501151003 | 46 | 244 | 1.0 | 3.0 | 0.00 | 0.01 | 0.00 | 75 | 1012.9 |
| 20260501150503 | 46 | 243 | 1.0 | 3.0 | 0.00 | 0.01 | 0.00 | 78 | 1013.0 |
| 20260501150003 | 46 | 235 | 1.0 | 3.0 | 0.00 | 0.01 | 0.00 | 75 | 1013.0 |
| 20260501144503 | 46 | 205 | 1.0 | 5.0 | 0.00 | 0.01 | 0.00 | 76 | 1013.0 |
| 20260501144003 | 46 | 197 | 1.0 | 5.0 | 0.00 | 0.01 | 0.00 | 74 | 1012.9 |
| 20260501143503 | 45 | 213 | 1.0 | 3.0 | 0.00 | 0.01 | 0.00 | 75 | 1012.9 |
| 20260501143003 | 45 | 223 | 1.0 | 3.0 | 0.00 | 0.01 | 0.00 | 75 | 1012.9 |
| 20260501142717 | 45 | 226 | 1.0 | 4.0 | 0.00 | 0.01 | 0.00 | 75 | 1012.8 |
| 20260501142003 | 45 | 208 | 1.0 | 4.0 | 0.00 | 0.01 | 0.00 | 73 | 1012.8 |
| 20260501141503 | 44 | 197 | 1.0 | 3.0 | 0.00 | 0.01 | 0.00 | 74 | 1012.8 |
| 20260501141003 | 44 | 189 | 1.0 | 2.0 | 0.00 | 0.01 | 0.00 | 75 | 1012.8 |
| 20260501140503 | 44 | 184 | 1.0 | 2.0 | 0.00 | 0.01 | 0.00 | 78 | 1013.0 |
| 20260501140003 | 44 | 187 | 1.0 | 2.0 | 0.00 | 0.01 | 0.00 | 76 | 1012.9 |
| 20260501135503 | 44 | 201 | 1.0 | 3.0 | 0.00 | 0.01 | 0.00 | 77 | 1012.9 |
| 20260501135218 | 44 | 205 | 1.0 | 3.0 | 0.00 | 0.01 | 0.00 | 75 | 1012.9 |
| 20260501134503 | 44 | 210 | 1.0 | 3.0 | 0.00 | 0.01 | 0.00 | 75 | 1012.7 |
| 20260501134003 | 44 | 215 | 1.0 | 3.0 | 0.00 | 0.01 | 0.00 | 78 | 1012.7 |
| 20260501133503 | 44 | 230 | 1.0 | 3.0 | 0.00 | 0.01 | 0.00 | 76 | 1012.8 |